User: anonymous   Login
Location: Vancouver
(49.2500°N, 123.1330°W)
Time: 06:48:20
(UTC-07:00)
Language:

S-56A Canister/Altair - Orbit

View from above orbital plane
View from above orbital plane
View from above satellite
View from above satellite

Ground track
Ground track

The orbit data is extracted from the following two-line orbital elements,

1 00082U 61004B   16138.72932800  .00000049  00000-0  94303-4 0  9997
2 00082  38.8537 320.2757 1166404  85.8559 287.4286 12.25759305624732
Epoch (UTC): 17 May 2016 17:30:13
Eccentricity: 0.1166404
inclination: 38.8537°
perigee height: 641 km
apogee height: 2494 km
right ascension of ascending node: 320.2757°
argument of perigee: 85.8559°
revolutions per day: 12.25759305
mean anomaly at epoch: 287.4286°
orbit number at epoch: 62473

The dashed part of the orbit path shows where the satellite is in the earth's shadow,  

DLR